Time,TemperatureF,DewpointF,PressureIn,WindDirection,WindDirectionDegrees,WindSpeedMPH,WindSpeedGustMPH,Humidity,HourlyPrecipIn,Conditions,Clouds,dailyrainin,SoftwareType,DateUTC
2013-02-05 00:03:00,28.6,23.0,29.93,ESE,113,1.0,4.0,79,0.00,,,0.00,weatherlink.com 1.10,2013-02-05 05:03:00,
2013-02-05 00:18:00,28.7,23.0,29.93,SE,138,0.0,3.0,79,0.00,,,0.00,weatherlink.com 1.10,2013-02-05 05:18:00,
2013-02-05 00:33:00,28.7,23.0,29.92,SE,138,0.0,3.0,80,0.00,,,0.00,weatherlink.com 1.10,2013-02-05 05:33:00,
2013-02-05 00:48:00,28.7,24.0,29.92,ESE,107,2.0,3.0,81,0.00,,,0.00,weatherlink.com 1.10,2013-02-05 05:48:00,
2013-02-05 01:03:00,28.5,23.0,29.92,ESE,107,1.0,2.0,81,0.00,,,0.00,weatherlink.com 1.10,2013-02-05 06:03:00,
2013-02-05 01:18:00,28.4,24.0,29.91,East,101,3.0,5.0,82,0.00,,,0.00,weatherlink.com 1.10,2013-02-05 06:18:00,
2013-02-05 01:33:00,28.4,24.0,29.92,ESE,119,3.0,4.0,83,0.00,,,0.00,weatherlink.com 1.10,2013-02-05 06:33:00,
2013-02-05 01:48:00,28.5,24.0,29.93,ESE,120,1.0,3.0,84,0.00,,,0.00,weatherlink.com 1.10,2013-02-05 06:48:00,
2013-02-05 02:03:00,28.5,24.0,29.93,ESE,108,2.0,2.0,84,0.00,,,0.00,weatherlink.com 1.10,2013-02-05 07:03:00,
2013-02-05 02:18:00,28.6,24.0,29.92,East,100,0.0,3.0,84,0.00,,,0.00,weatherlink.com 1.10,2013-02-05 07:18:00,
2013-02-05 02:33:00,28.5,24.0,29.91,East,94,3.0,4.0,84,0.00,,,0.00,weatherlink.com 1.10,2013-02-05 07:33:00,
2013-02-05 02:48:00,28.5,25.0,29.90,East,99,2.0,3.0,85,0.00,,,0.00,weatherlink.com 1.10,2013-02-05 07:48:00,
2013-02-05 03:03:00,28.5,25.0,29.90,East,96,2.0,3.0,85,0.00,,,0.00,weatherlink.com 1.10,2013-02-05 08:03:00,
2013-02-05 03:18:00,28.4,25.0,29.90,ENE,72,1.0,3.0,86,0.00,,,0.00,weatherlink.com 1.10,2013-02-05 08:18:00,
2013-02-05 03:33:00,28.4,25.0,29.90,East,98,1.0,3.0,85,0.00,,,0.00,weatherlink.com 1.10,2013-02-05 08:33:00,
2013-02-05 03:48:00,28.4,25.0,29.90,East,81,0.0,3.0,86,0.00,,,0.00,weatherlink.com 1.10,2013-02-05 08:48:00,
2013-02-05 04:03:00,28.4,25.0,29.90,ENE,72,1.0,3.0,86,0.00,,,0.00,weatherlink.com 1.10,2013-02-05 09:03:00,
2013-02-05 04:18:00,28.4,25.0,29.91,ENE,62,2.0,3.0,86,0.00,,,0.00,weatherlink.com 1.10,2013-02-05 09:18:00,
2013-02-05 04:33:00,28.5,25.0,29.91,ENE,63,1.0,2.0,86,0.00,,,0.00,weatherlink.com 1.10,2013-02-05 09:33:00,
2013-02-05 04:48:00,28.5,25.0,29.91,NE,52,1.0,3.0,86,0.00,,,0.00,weatherlink.com 1.10,2013-02-05 09:48:00,
2013-02-05 05:03:00,28.5,25.0,29.92,ENE,61,1.0,3.0,86,0.00,,,0.00,weatherlink.com 1.10,2013-02-05 10:03:00,
2013-02-05 05:18:00,28.7,25.0,29.91,NE,55,2.0,3.0,86,0.00,,,0.00,weatherlink.com 1.10,2013-02-05 10:18:00,
2013-02-05 05:33:00,28.7,25.0,29.91,ENE,57,1.0,3.0,86,0.00,,,0.00,weatherlink.com 1.10,2013-02-05 10:33:00,
2013-02-05 05:48:00,28.8,25.0,29.91,ENE,57,0.0,1.0,86,0.00,,,0.00,weatherlink.com 1.10,2013-02-05 10:48:00,
2013-02-05 06:03:00,29.0,25.0,29.91,ENE,57,0.0,0.0,86,0.00,,,0.00,weatherlink.com 1.10,2013-02-05 11:03:00,
2013-02-05 06:18:00,29.1,25.0,29.91,ENE,57,0.0,0.0,86,0.00,,,0.00,weatherlink.com 1.10,2013-02-05 11:18:00,
2013-02-05 06:33:00,29.1,25.0,29.91,East,88,0.0,3.0,86,0.00,,,0.00,weatherlink.com 1.10,2013-02-05 11:33:00,
2013-02-05 06:48:00,29.0,26.0,29.92,SE,129,1.0,3.0,87,0.00,,,0.00,weatherlink.com 1.10,2013-02-05 11:48:00,
2013-02-05 07:03:00,28.9,26.0,29.93,SE,134,0.0,2.0,87,0.00,,,0.00,weatherlink.com 1.10,2013-02-05 12:03:00,
2013-02-05 07:18:00,29.0,26.0,29.93,SE,134,0.0,1.0,87,0.00,,,0.00,weatherlink.com 1.10,2013-02-05 12:18:00,
2013-02-05 07:33:00,29.2,26.0,29.93,NE,53,2.0,2.0,86,0.00,,,0.00,weatherlink.com 1.10,2013-02-05 12:33:00,
2013-02-05 07:48:00,29.3,26.0,29.94,NE,51,0.0,1.0,87,0.00,,,0.00,weatherlink.com 1.10,2013-02-05 12:48:00,
2013-02-05 08:03:00,29.5,26.0,29.94,NE,51,0.0,0.0,86,0.00,,,0.00,weatherlink.com 1.10,2013-02-05 13:03:00,
2013-02-05 08:18:00,29.6,26.0,29.94,NE,38,0.0,0.0,86,0.00,,,0.00,weatherlink.com 1.10,2013-02-05 13:18:00,
2013-02-05 08:33:00,29.8,26.0,29.94,NNE,24,2.0,2.0,86,0.00,,,0.00,weatherlink.com 1.10,2013-02-05 13:33:00,
2013-02-05 08:48:00,30.1,26.0,29.94,NNE,28,0.0,2.0,85,0.00,,,0.00,weatherlink.com 1.10,2013-02-05 13:48:00,
2013-02-05 09:03:00,30.3,26.0,29.95,NNE,13,0.0,3.0,85,0.00,,,0.00,weatherlink.com 1.10,2013-02-05 14:03:00,
2013-02-05 09:18:00,30.6,26.0,29.95,NNE,32,0.0,3.0,84,0.00,,,0.00,weatherlink.com 1.10,2013-02-05 14:18:00,
2013-02-05 09:33:00,30.9,27.0,29.96,NNE,32,0.0,2.0,84,0.00,,,0.00,weatherlink.com 1.10,2013-02-05 14:33:00,
2013-02-05 09:48:00,31.5,27.0,29.96,NNE,31,0.0,1.0,83,0.00,,,0.00,weatherlink.com 1.10,2013-02-05 14:48:00,
2013-02-05 10:03:00,31.8,27.0,29.96,NNE,24,0.0,2.0,82,0.00,,,0.00,weatherlink.com 1.10,2013-02-05 15:03:00,
2013-02-05 10:18:00,32.2,27.0,29.95,NE,42,2.0,2.0,82,0.00,,,0.00,weatherlink.com 1.10,2013-02-05 15:18:00,
2013-02-05 10:33:00,32.6,27.0,29.96,North,10,0.0,2.0,81,0.00,,,0.00,weatherlink.com 1.10,2013-02-05 15:33:00,
2013-02-05 10:48:00,32.8,27.0,29.95,NNE,26,1.0,4.0,80,0.00,,,0.00,weatherlink.com 1.10,2013-02-05 15:48:00,
2013-02-05 11:03:00,33.1,27.0,29.95,ENE,65,1.0,5.0,78,0.00,,,0.00,weatherlink.com 1.10,2013-02-05 16:03:00,
2013-02-05 11:18:00,32.9,27.0,29.96,NE,45,0.0,4.0,79,0.00,,,0.00,weatherlink.com 1.10,2013-02-05 16:18:00,
2013-02-05 11:33:00,32.8,27.0,29.96,ESE,119,2.0,4.0,80,0.00,,,0.00,weatherlink.com 1.10,2013-02-05 16:33:00,
2013-02-05 11:48:00,32.8,27.0,29.94,ENE,60,1.0,3.0,80,0.00,,,0.00,weatherlink.com 1.10,2013-02-05 16:48:00,
2013-02-05 12:03:00,32.8,27.0,29.94,North,5,2.0,4.0,80,0.00,,,0.00,weatherlink.com 1.10,2013-02-05 17:03:00,
2013-02-05 12:19:00,32.8,27.0,29.93,NE,49,1.0,3.0,80,0.00,,,0.00,weatherlink.com 1.10,2013-02-05 17:19:00,
2013-02-05 12:34:00,33.1,28.0,29.93,NE,43,0.0,3.0,80,0.00,,,0.00,weatherlink.com 1.10,2013-02-05 17:34:00,
2013-02-05 12:49:00,33.2,28.0,29.92,NE,43,0.0,4.0,80,0.00,,,0.00,weatherlink.com 1.10,2013-02-05 17:49:00,
2013-02-05 13:04:00,33.2,28.0,29.91,ESE,123,1.0,4.0,80,0.00,,,0.00,weatherlink.com 1.10,2013-02-05 18:04:00,
2013-02-05 13:19:00,33.5,28.0,29.91,ENE,62,2.0,5.0,79,0.00,,,0.00,weatherlink.com 1.10,2013-02-05 18:19:00,
2013-02-05 13:34:00,33.4,28.0,29.90,ENE,74,2.0,5.0,79,0.00,,,0.00,weatherlink.com 1.10,2013-02-05 18:34:00,
2013-02-05 13:49:00,33.7,28.0,29.90,ESE,109,4.0,5.0,79,0.00,,,0.00,weatherlink.com 1.10,2013-02-05 18:49:00,
2013-02-05 14:04:00,33.5,28.0,29.90,ESE,111,3.0,5.0,80,0.00,,,0.00,weatherlink.com 1.10,2013-02-05 19:04:00,
2013-02-05 14:19:00,33.5,28.0,29.89,SE,124,2.0,4.0,80,0.00,,,0.00,weatherlink.com 1.10,2013-02-05 19:19:00,
2013-02-05 14:34:00,33.8,28.0,29.89,ENE,74,2.0,6.0,80,0.00,,,0.00,weatherlink.com 1.10,2013-02-05 19:34:00,
2013-02-05 14:49:00,33.7,28.0,29.89,East,85,3.0,5.0,79,0.00,,,0.00,weatherlink.com 1.10,2013-02-05 19:49:00,
2013-02-05 15:04:00,33.6,28.0,29.89,East,82,0.0,5.0,79,0.00,,,0.00,weatherlink.com 1.10,2013-02-05 20:04:00,
2013-02-05 15:19:00,33.2,28.0,29.89,ENE,69,2.0,6.0,80,0.00,,,0.00,weatherlink.com 1.10,2013-02-05 20:19:00,
2013-02-05 15:34:00,33.2,28.0,29.89,ESE,107,0.0,6.0,81,0.00,,,0.00,weatherlink.com 1.10,2013-02-05 20:34:00,
2013-02-05 15:49:00,33.2,28.0,29.89,ENE,76,2.0,5.0,81,0.00,,,0.00,weatherlink.com 1.10,2013-02-05 20:49:00,
2013-02-05 16:04:00,33.4,28.0,29.89,ESE,102,3.0,4.0,81,0.00,,,0.00,weatherlink.com 1.10,2013-02-05 21:04:00,
2013-02-05 16:19:00,33.2,28.0,29.90,ESE,121,2.0,4.0,81,0.00,,,0.00,weatherlink.com 1.10,2013-02-05 21:19:00,
2013-02-05 16:34:00,32.9,29.0,29.89,SE,133,2.0,4.0,84,0.00,,,0.00,weatherlink.com 1.10,2013-02-05 21:34:00,
2013-02-05 16:49:00,32.6,29.0,29.90,East,101,0.0,3.0,86,0.00,,,0.00,weatherlink.com 1.10,2013-02-05 21:49:00,
2013-02-05 17:04:00,32.5,29.0,29.89,SSE,148,0.0,4.0,87,0.00,,,0.00,weatherlink.com 1.10,2013-02-05 22:04:00,
2013-02-05 17:19:00,32.3,29.0,29.90,SSE,154,1.0,4.0,87,0.00,,,0.00,weatherlink.com 1.10,2013-02-05 22:19:00,
2013-02-05 17:34:00,31.9,29.0,29.90,SE,142,2.0,3.0,90,0.00,,,0.00,weatherlink.com 1.10,2013-02-05 22:34:00,
2013-02-05 17:49:00,31.3,29.0,29.90,SE,140,0.0,3.0,92,0.00,,,0.00,weatherlink.com 1.10,2013-02-05 22:49:00,
2013-02-05 18:04:00,31.3,30.0,29.90,SE,140,0.0,0.0,93,0.00,,,0.00,weatherlink.com 1.10,2013-02-05 23:04:00,
2013-02-05 18:19:00,31.4,29.0,29.90,ESE,122,1.0,3.0,92,0.00,,,0.00,weatherlink.com 1.10,2013-02-05 23:19:00,
2013-02-05 18:34:00,31.4,29.0,29.90,ESE,122,0.0,2.0,92,0.00,,,0.00,weatherlink.com 1.10,2013-02-05 23:34:00,
2013-02-05 18:49:00,31.5,30.0,29.91,ESE,122,0.0,3.0,92,0.00,,,0.00,weatherlink.com 1.10,2013-02-05 23:49:00,
2013-02-05 19:04:00,31.7,30.0,29.91,ESE,116,0.0,0.0,92,0.00,,,0.00,weatherlink.com 1.10,2013-02-06 00:04:00,
2013-02-05 19:19:00,31.7,30.0,29.91,ESE,107,0.0,1.0,92,0.00,,,0.00,weatherlink.com 1.10,2013-02-06 00:19:00,
2013-02-05 19:34:00,31.7,30.0,29.91,ESE,106,1.0,2.0,92,0.00,,,0.00,weatherlink.com 1.10,2013-02-06 00:34:00,
2013-02-05 19:49:00,31.7,30.0,29.91,ESE,115,0.0,1.0,92,0.00,,,0.00,weatherlink.com 1.10,2013-02-06 00:49:00,
2013-02-05 20:04:00,31.7,30.0,29.91,ESE,115,0.0,2.0,92,0.00,,,0.00,weatherlink.com 1.10,2013-02-06 01:04:00,
2013-02-05 20:19:00,31.6,29.0,29.91,ESE,115,0.0,2.0,91,0.00,,,0.00,weatherlink.com 1.10,2013-02-06 01:19:00,
2013-02-05 20:34:00,31.5,30.0,29.91,ESE,115,0.0,1.0,92,0.00,,,0.00,weatherlink.com 1.10,2013-02-06 01:34:00,
2013-02-05 20:49:00,31.4,29.0,29.91,ESE,115,0.0,0.0,92,0.00,,,0.00,weatherlink.com 1.10,2013-02-06 01:49:00,
2013-02-05 21:04:00,31.3,30.0,29.91,ESE,115,2.0,2.0,93,0.00,,,0.00,weatherlink.com 1.10,2013-02-06 02:04:00,
2013-02-05 21:19:00,31.3,30.0,29.93,ESE,115,2.0,2.0,93,0.00,,,0.00,weatherlink.com 1.10,2013-02-06 02:19:00,
2013-02-05 21:34:00,31.3,30.0,29.93,ESE,114,0.0,2.0,93,0.00,,,0.00,weatherlink.com 1.10,2013-02-06 02:34:00,
2013-02-05 21:49:00,31.2,29.0,29.94,ESE,114,0.0,0.0,93,0.00,,,0.00,weatherlink.com 1.10,2013-02-06 02:49:00,
2013-02-05 22:04:00,31.2,30.0,29.94,ESE,114,0.0,0.0,94,0.00,,,0.00,weatherlink.com 1.10,2013-02-06 03:04:00,
2013-02-05 22:19:00,31.0,29.0,29.94,ESE,114,0.0,0.0,93,0.00,,,0.00,weatherlink.com 1.10,2013-02-06 03:19:00,
2013-02-05 22:34:00,31.2,30.0,29.95,NW,315,5.0,7.0,94,0.00,,,0.00,weatherlink.com 1.10,2013-02-06 03:34:00,
2013-02-05 22:49:00,31.3,30.0,29.95,NW,307,0.0,3.0,94,0.00,,,0.00,weatherlink.com 1.10,2013-02-06 03:49:00,
2013-02-05 23:04:00,31.2,30.0,29.95,NW,311,0.0,1.0,94,0.00,,,0.00,weatherlink.com 1.10,2013-02-06 04:04:00,
2013-02-05 23:19:00,31.3,30.0,29.95,NW,311,0.0,2.0,94,0.00,,,0.00,weatherlink.com 1.10,2013-02-06 04:19:00,
2013-02-05 23:34:00,31.2,30.0,29.95,NW,311,0.0,0.0,94,0.00,,,0.00,weatherlink.com 1.10,2013-02-06 04:34:00,
2013-02-05 23:49:00,31.1,30.0,29.95,West,281,0.0,1.0,95,0.00,,,0.00,weatherlink.com 1.10,2013-02-06 04:49:00,